Weather Roundup
Issued by NWS Springfield, MO

Home | Current Version | Previous Version | Text Only | Print | Product List | Glossary On
Versions: 1 2 3 4 5 6 7 8 9 10 11 12 13 14 15 16 17 18 19 20 21 22 23 24 25 26 27 28 29 30 31 32 33 34 35 36 37 38 39 40 41 42 43 44 45 46 47 48 49 50
000
NZUS99 KSGF 300059
HRRSGF

HOURLY WEATHER
NATIONAL WEATHER SERVICE SPRINGFIELD MO
800 PM CDT SUN MAR 29 2015

......SGF CWA......

CITY           SKY/WX    TMP DP  RH WIND       PRES   REMARKS
SPRINGFIELD    CLOUDY    51  42  71 SW6       30.06R
JOPLIN         MOCLDY    57  41  55 CALM      30.08R
WEST PLAINS    CLOUDY    56  42  59 W6        30.07R
ROLLA          PTCLDY    48  38  68 SW8       30.01R
OSAGE BEACH    PTCLDY    55  37  50 SW3       30.03R
BRANSON        MOCLDY    57  45  62 NW6       30.10R

......SURROUNDING SGF CWA......

CITY           SKY/WX    TMP DP  RH WIND       PRES   REMARKS
CHANUTE        CLEAR     64  39  39 N13       30.09R
PARSONS        CLEAR     59  46  62 S3        30.09R
COFFEYVILLE    CLEAR     59  44  57 S7        30.07R
EMPORIA        CLEAR     59  36  42 N12       30.10R
SILOAM SPRINGS MOCLDY    55  43  62 N3        30.10R
HARRISON AR    CLOUDY    60  45  57 NW6       30.09R
NEAR YELLVILLE MOCLDY    63  43  48 NW7       30.06R

......KANSAS AND MISSOURI......

CITY           SKY/WX    TMP DP  RH WIND       PRES   REMARKS
KANSAS CTY INT CLEAR     53  37  54 N9        30.09R
DOWNTOWN KC    CLEAR     59  37  44 NW8       30.08R
COLUMBIA       PTCLDY    51  41  68 SW9       30.01R
SEDALIA        CLEAR     59  42  53 NW15      30.05R
ST JOSEPH      CLEAR     54  34  46 N9        30.10R
ST LOUIS       MOCLDY    54  39  57 CALM      29.99R
SPIRIT OF STL  MOCLDY    49  39  68 CALM      29.98R
KIRKSVILLE     CLEAR     53  37  54 W8        30.02R
WICHITA        CLEAR     67  30  25 N13       30.10R
TOPEKA         CLEAR     56  36  47 NW8       30.12R
OLATHE         CLEAR     57  37  47 N7        30.09R

......TENNESSEE......

CITY           SKY/WX    TMP DP  RH WIND       PRES   REMARKS
MEMPHIS        MOCLDY    64  50  60 S3        30.04R
NASHVILLE      PTCLDY    56  36  47 S16       30.05S

......ARKANSAS.......

CITY           SKY/WX    TMP DP  RH WIND       PRES   REMARKS
FAYETTEVILLE   CLOUDY    56  48  74 E3        30.08S
FT SMITH       CLEAR     66  45  46 N7        30.06R
LITTLE ROCK    MOCLDY    73  49  42 NW5       30.01R

......OKLAHOMA.......

CITY           SKY/WX    TMP DP  RH WIND       PRES   REMARKS
TULSA          CLOUDY    62  42  47 SE7       30.07R
PONCA CITY     CLEAR     64  35  34 N3        30.09R
MCALESTER      PTCLDY    69  46  43 N13       30.07R
OKLAHOMA CITY  PTCLDY    67  41  38 NE8       30.10R

......IOWA............

CITY           SKY/WX    TMP DP  RH WIND       PRES   REMARKS
DES MOINES     PTCLDY    56  20  24 NW9       30.01R
QUAD CITIES    CLEAR     51  37  58 NW10      29.90R

......ILLINOIS........

CITY           SKY/WX    TMP DP  RH WIND       PRES   REMARKS
QUINCY         CLEAR     54  40  59 NW16      29.97R
CHICAGO        CLOUDY    46  37  71 W18G33    29.82R




USA.gov is the U.S. government's official web portal to all federal, state and local government web resources and services.